Lapse_Rate
6.3 6.3 6.4 6.3 6.2 6.3 6.3 6.2 6.0 5.8 5.7 5.5 5.4 5.4 5.4 5.3 5.3 5.3 5.3 5.3 5.4 5.4 5.5 5.6 5.6 5.7 5.6 5.7 5.6 5.7 5.8 5.8 5.7 5.6 5.3 5.2 5.2 5.2 5.1 5.3 5.3 5.2 5.3 5.4 5.4 5.2 5.1
6.4 6.5 6.5 6.4 6.3 6.3 6.2 6.0 5.8 5.8 5.7 5.6 5.5 5.2 5.2 5.2 5.2 5.2 5.3 5.5 5.4 5.4 5.5 5.6 5.7 5.7 5.7 5.7 5.7 5.7 5.8 5.8 5.7 5.5 5.5 5.4 5.2 5.2 5.1 5.2 5.3 5.4 5.5 5.3 5.4 5.6 5.7
6.3 6.3 6.3 6.2 6.2 6.1 6.1 5.9 5.7 5.6 5.4 5.4 5.4 5.3 5.2 5.2 5.1 5.2 5.3 5.5 5.5 5.4 5.4 5.5 5.7 5.8 5.7 5.8 5.7 5.7 5.7 5.6 5.6 5.5 5.4 5.4 5.2 5.1 5.1 5.0 5.3 5.2 5.4 5.5 5.6 5.6 5.6
6.1 6.1 6.1 6.1 6.0 5.9 5.7 5.7 5.6 5.5 5.4 5.4 5.5 5.4 5.4 5.4 5.2 5.1 5.2 5.4 5.4 5.7 5.5 5.6 5.6 5.8 5.7 5.7 5.7 5.7 5.6 5.5 5.5 5.4 5.4 5.4 5.3 5.1 5.2 5.1 5.3 5.0 5.2 5.5 5.5 5.5 5.5
6.1 6.1 6.0 6.0 5.8 5.7 5.7 5.6 5.5 5.4 5.5 5.3 5.3 5.3 5.2 5.3 5.3 5.2 5.2 5.3 5.3 5.6 5.6 5.7 5.7 5.7 5.7 5.7 5.7 5.7 5.7 5.5 5.5 5.4 5.4 5.3 5.2 5.2 5.0 5.1 5.2 5.2 5.2 5.2 5.2 5.2 5.2
5.9 5.9 5.9 5.8 5.8 5.7 5.5 5.5 5.4 5.4 5.3 5.2 5.2 5.3 5.4 5.4 5.5 5.4 5.5 5.5 5.4 5.5 5.5 5.7 5.7 5.7 5.7 5.7 5.6 5.7 5.7 5.6 5.5 5.4 5.4 5.3 5.2 5.1 5.1 5.1 5.2 5.1 5.2 5.6 5.3 5.3 5.1
5.8 5.8 5.7 5.8 5.8 5.7 5.6 5.5 5.5 5.5 5.5 5.5 5.5 5.4 5.5 5.5 5.5 5.5 5.5 5.5 5.7 5.6 5.5 5.6 5.5 5.5 5.6 5.5 5.5 5.5 5.7 5.7 5.7 5.7 5.5 5.4 5.2 5.0 5.0 5.1 5.1 5.1 5.1 5.2 5.3 5.2 5.0
5.7 5.8 5.8 5.7 5.8 5.7 5.7 5.7 5.7 5.7 5.8 5.8 5.8 5.7 5.6 5.4 5.4 5.7 5.6 5.7 6.0 5.8 5.6 5.5 5.4 5.3 5.3 5.3 5.2 5.4 5.5 5.5 5.6 5.6 5.6 5.4 5.2 4.9 4.8 4.9 5.0 5.1 4.9 5.1 5.4 5.5 5.3
5.6 5.7 5.8 5.9 5.9 5.8 5.9 5.9 6.0 6.1 6.3 6.2 6.0 6.1 5.8 5.8 5.8 5.7 6.0 5.8 5.7 5.8 5.6 5.5 5.5 5.4 5.3 5.2 5.2 5.3 5.3 5.4 5.4 5.4 5.4 5.3 5.1 4.9 4.9 4.8 5.0 5.0 4.9 5.0 4.9 5.0 5.4
5.5 5.5 5.8 5.8 5.8 5.8 5.9 6.2 6.3 6.3 6.3 6.4 6.3 6.3 6.0 5.8 6.0 5.9 5.9 5.8 5.6 5.6 5.6 5.4 5.4 5.4 5.4 5.4 5.3 5.2 5.1 5.2 5.1 5.2 5.3 5.3 5.2 5.0 4.9 5.0 5.2 5.2 5.1 4.9 5.1 5.1 5.2
5.4 5.5 5.6 5.9 6.0 6.0 6.2 6.3 6.4 6.4 6.4 6.4 6.2 6.2 6.2 6.0 5.8 5.7 5.8 6.0 5.9 5.7 4.8 5.4 5.2 5.2 5.2 5.3 5.2 5.0 5.1 5.2 5.0 5.1 5.1 5.1 5.0 5.1 5.1 5.1 5.2 5.1 5.1 5.1 5.2 5.2 5.1
5.5 5.5 5.7 5.9 6.1 6.1 6.2 6.3 6.4 6.4 6.5 6.4 6.3 6.2 6.0 6.1 6.0 5.9 6.0 6.0 6.0 5.9 5.2 5.4 5.2 5.3 5.3 5.2 5.1 5.1 5.1 5.1 5.1 5.2 5.2 5.0 5.0 5.2 5.3 5.2 5.3 5.1 5.3 5.3 5.2 5.2 4.6
5.5 5.5 5.8 5.9 6.0 6.1 6.2 6.3 6.4 6.4 6.4 6.5 6.5 6.4 6.2 6.0 5.9 6.1 6.1 6.0 5.8 5.8 5.2 5.2 5.2 5.2 5.2 5.1 5.0 5.0 5.2 5.0 5.1 5.2 5.1 5.2 5.3 5.2 5.2 5.2 5.4 5.4 5.5 5.4 4.8 4.8 4.8
5.5 5.6 5.9 6.0 6.0 6.0 6.1 6.3 6.3 6.4 6.4 6.4 6.5 6.4 6.3 6.1 6.0 6.1 6.0 6.0 5.6 4.9 5.0 5.1 5.1 4.9 4.9 5.0 5.2 5.2 4.9 4.8 4.7 4.7 4.9 5.1 5.3 5.3 5.1 5.2 5.3 5.5 5.6 5.4 5.2 5.1 5.3
5.8 5.8 5.9 6.0 6.0 6.1 6.1 6.1 6.2 6.2 6.3 6.1 6.2 6.3 6.3 6.2 6.0 5.9 5.8 5.6 5.1 4.7 4.7 4.9 4.8 4.8 4.6 4.6 4.5 4.6 4.6 4.7 4.6 4.3 4.4 4.6 5.0 5.2 5.2 5.3 5.4 5.4 5.6 5.5 5.5 5.6 5.0
5.8 5.8 5.9 5.9 5.9 5.9 6.0 6.0 6.0 6.2 6.2 6.3 6.2 6.2 6.3 6.1 6.0 5.7 5.5 5.2 4.9 4.5 4.4 4.5 4.5 4.4 4.3 4.4 4.5 4.3 4.4 4.5 4.3 4.3 4.2 4.4 4.6 5.4 5.3 5.4 5.4 5.3 5.3 5.5 5.6 5.3 5.4
5.7 5.7 5.9 5.9 5.9 5.8 5.8 5.8 5.9 6.1 6.3 6.3 6.2 6.3 6.2 5.9 5.7 5.5 5.1 4.9 4.8 4.5 4.4 4.2 4.4 4.3 4.0 3.9 4.1 4.2 4.4 4.4 4.3 4.2 4.4 4.3 4.4 5.6 5.3 5.3 5.3 5.2 5.3 5.5 5.5 5.7 5.4
5.8 5.6 5.6 5.5 5.6 5.6 5.7 5.8 5.9 6.0 6.1 6.2 6.1 6.0 5.9 5.7 5.6 5.3 5.2 4.9 4.7 4.4 4.3 4.2 4.3 4.1 4.1 3.8 4.1 4.2 4.4 4.2 4.3 4.2 4.2 4.3 4.2 4.6 5.3 5.4 5.4 5.3 5.4 5.5 5.4 5.5 5.6
5.5 5.5 5.4 5.4 5.4 5.6 5.7 5.8 5.9 6.0 6.0 6.1 6.1 6.1 5.8 5.7 5.6 5.4 5.2 4.9 4.7 4.5 4.5 4.4 4.1 4.1 4.1 3.9 3.9 4.2 4.4 4.5 4.4 4.2 4.1 4.0 4.3 3.9 5.3 5.0 5.0 5.1 5.4 5.4 4.9 4.5 4.8
5.3 5.3 5.4 5.5 5.5 5.7 5.7 5.8 5.8 5.9 5.9 5.9 5.9 6.0 6.1 5.7 5.5 5.3 5.3 5.0 4.7 4.7 4.8 4.6 4.5 4.2 4.1 4.2 4.2 4.4 4.3 4.0 4.4 4.4 4.4 4.1 4.4 4.8 5.0 5.1 5.0 4.9 5.3 5.3 5.0 4.4 4.4
5.5 5.4 5.5 5.5 5.5 5.6 5.7 5.8 5.7 5.6 5.8 5.8 5.7 5.6 5.6 5.7 5.5 5.4 5.3 5.1 5.0 4.9 5.1 4.7 4.6 4.2 4.2 4.1 3.9 4.3 4.3 4.3 4.8 4.8 4.7 4.4 4.4 4.4 4.8 4.7 4.5 4.7 5.3 5.1 4.8 5.1 4.3
5.6 5.6 5.7 5.7 5.7 5.8 5.8 5.8 5.8 5.9 5.7 5.8 5.4 5.4 5.6 5.7 5.5 5.6 5.3 5.2 5.1 5.1 5.1 5.1 4.6 4.3 4.2 4.0 4.2 4.0 4.0 4.5 4.5 5.1 4.9 4.5 4.5 4.2 4.4 4.7 4.7 4.4 6.1 5.6 5.7 5.5 4.8
5.5 5.5 5.5 5.5 5.6 5.7 5.9 5.9 5.9 6.0 5.7 5.6 5.5 5.4 5.3 5.6 5.7 5.6 5.5 5.3 5.2 5.2 5.2 5.1 4.5 4.3 4.6 4.4 4.3 4.2 4.1 4.4 4.7 4.7 4.6 4.5 4.1 3.9 3.9 4.1 3.9 4.7 6.1 6.2 6.2 6.2 5.9
5.6 5.5 5.5 5.5 5.5 5.5 5.6 5.7 5.8 5.9 5.7 5.6 5.5 5.4 5.2 5.3 5.7 5.7 5.6 5.5 5.3 5.2 5.3 5.4 4.9 4.4 4.7 4.5 4.4 4.8 5.1 5.4 5.4 5.9 5.4 4.7 4.4 3.9 3.9 4.1 3.3 5.6 5.8 5.8 5.5 5.9 5.8
5.8 5.7 5.6 5.6 5.6 5.6 5.6 5.5 5.6 5.6 5.5 5.5 5.5 5.4 5.1 4.8 5.4 6.0 5.5 5.7 6.0 5.8 5.4 5.2 5.1 4.7 4.4 4.4 4.3 4.3 4.7 5.2 5.7 6.0 6.4 6.2 5.1 4.3 4.3 3.9 4.6 5.3 5.9 5.9 5.7 5.8 5.9
5.7 5.5 5.6 5.6 5.7 5.6 5.5 5.6 5.5 5.4 5.4 5.3 5.5 5.5 5.2 4.8 4.6 5.6 5.6 5.8 5.8 6.0 5.5 5.4 5.3 4.7 4.8 4.6 4.7 4.6 4.7 4.5 4.7 5.2 5.7 5.9 5.6 4.5 4.2 4.2 4.2 5.7 5.8 5.5 5.1 4.9 5.5
5.3 5.3 5.5 5.4 5.2 5.3 5.3 5.3 5.5 5.4 5.3 5.3 5.3 5.7 5.3 4.8 4.9 4.7 5.2 5.3 5.5 5.7 5.1 5.2 5.2 5.1 5.2 5.1 5.0 5.0 4.9 5.0 5.1 5.6 6.1 5.8 5.6 5.1 4.8 4.6 5.0 5.7 5.7 5.4 4.9 5.4 4.9
5.4 5.3 5.3 5.4 5.2 5.1 5.1 5.1 4.9 5.4 5.6 5.6 5.4 5.5 5.5 5.2 4.7 4.4 4.9 4.9 5.2 5.4 5.3 5.3 5.2 5.3 5.3 5.2 5.4 5.4 5.4 5.2 5.1 5.3 5.7 5.7 5.6 4.9 4.5 4.4 4.4 5.9 5.8 5.4 5.5 5.0 4.8
5.7 5.4 5.4 5.2 5.0 5.2 5.2 4.7 5.4 5.4 5.7 5.6 5.6 5.8 5.4 4.9 4.7 4.5 4.7 5.1 5.4 5.7 5.7 5.5 5.6 5.6 5.5 5.5 5.5 5.8 5.4 5.2 5.2 5.0 5.4 5.2 6.0 5.7 5.4 5.8 6.1 5.5 5.5 5.4 5.2 5.0 4.7
Wind_Speed
12 12 13 13 14 14 15 15 16 17 18 19 20 21 22 23 21 20 18 16 13 11 8 5 3 2 1 5 1 2 4 7 4 3 5 4 6 2 4 2 3 3 2 3 7 9 6
11 11 12 12 13 14 14 15 17 18 19 21 23 25 25 26 23 20 19 15 10 10 8 3 2 0 2 5 4 3 4 3 4 3 4 5 2 2 4 2 2 2 3 2 5 5 3
10 10 11 11 12 13 14 15 16 17 19 21 23 25 28 28 26 21 20 14 8 7 7 4 2 2 7 3 2 3 3 2 2 2 3 2 0 2 3 2 2 2 3 5 3 4 4
8 9 10 11 12 13 14 16 17 18 21 22 24 25 27 29 28 23 21 10 2 5 5 3 2 1 3 1 2 4 5 3 4 3 2 1 1 4 3 1 5 4 5 3 3 1 5
7 8 9 11 12 13 15 17 18 19 21 23 25 26 27 29 29 27 22 5 2 3 3 3 2 3 2 2 4 3 2 2 3 2 2 2 3 4 6 4 4 6 2 2 4 6 2
5 6 8 10 11 13 14 16 19 20 22 23 24 25 27 29 27 29 12 2 3 2 2 1 1 4 5 4 3 4 1 2 2 1 3 6 5 4 4 5 1 3 2 3 3 1 8
3 5 6 8 10 12 13 15 17 19 21 23 24 26 26 26 21 23 10 3 6 5 10 3 2 0 4 7 2 1 2 2 2 6 3 4 6 2 3 2 3 2 2 4 4 4 5
3 5 6 7 9 10 13 15 16 19 21 24 25 26 28 24 10 16 6 6 2 2 2 1 3 3 2 2 4 3 4 4 4 2 2 5 1 1 1 1 2 3 3 4 3 3 3
5 6 7 8 9 11 12 13 15 17 19 23 24 26 28 31 1 6 6 4 3 3 2 5 1 1 3 2 3 5 5 1 4 2 2 3 0 1 3 1 1 2 3 2 3 1 2
7 8 8 9 11 12 13 15 15 17 19 21 24 23 25 31 4 2 3 5 3 1 4 8 5 2 1 1 2 1 2 2 4 2 1 2 1 1 1 1 0 4 3 2 3 0 3
9 9 10 9 10 11 13 15 16 17 18 21 23 23 22 11 2 3 4 7 1 2 4 4 6 2 5 3 3 4 2 3 1 3 3 2 2 2 1 2 3 6 2 4 2 2 3
9 10 11 10 10 11 13 15 16 17 18 20 22 21 19 2 2 1 5 1 2 5 2 5 3 7 6 4 4 5 4 5 1 2 2 2 1 1 2 3 2 5 1 4 3 2 2
8 9 9 10 10 10 12 14 14 15 16 18 23 23 7 1 1 3 1 2 5 6 2 6 4 5 2 4 6 4 4 6 4 6 6 6 2 2 1 3 2 7 5 3 3 2 4
8 8 9 10 9 10 11 11 12 13 16 17 23 17 2 1 4 3 2 4 6 1 2 2 3 4 3 5 3 7 3 4 4 3 2 3 6 2 2 1 2 1 2 3 3 2 4
8 8 7 7 7 8 10 12 11 12 13 16 20 4 2 2 5 1 4 5 2 2 2 4 4 5 4 3 3 7 3 0 1 1 2 3 5 3 3 1 4 1 0 3 2 2 2
6 6 6 5 5 8 9 9 10 10 10 10 3 4 3 8 7 3 5 2 1 2 3 1 2 3 4 5 7 6 3 1 0 0 2 2 5 2 4 0 1 2 3 2 2 3 4
6 5 5 6 6 7 8 8 9 9 8 8 2 3 2 13 2 4 3 2 0 1 2 2 1 2 0 3 2 3 3 2 1 1 1 2 2 4 2 2 2 1 1 1 1 2 3
6 5 5 5 5 6 6 6 7 8 9 4 1 2 3 4 4 1 2 1 1 1 1 1 1 2 1 2 3 3 3 3 0 1 3 1 3 4 8 2 2 2 2 2 2 3 3
7 6 5 4 4 5 5 4 4 5 6 1 1 2 3 3 3 2 4 2 0 1 2 1 1 3 1 2 3 4 3 1 1 1 1 2 1 4 8 4 1 3 4 4 3 3 11
6 6 5 5 4 5 4 5 3 2 2 3 2 3 4 4 1 2 3 2 3 0 2 1 1 1 1 2 3 4 2 2 1 2 2 1 3 7 7 7 2 5 6 5 6 5 6
6 6 5 5 5 5 5 5 4 3 1 3 3 1 1 2 3 2 1 1 2 3 0 0 0 3 3 2 3 4 2 5 4 3 3 3 5 5 9 8 6 14 18 12 12 17 13
6 6 6 6 6 7 5 5 7 7 4 2 1 2 2 1 2 0 1 2 2 3 2 3 3 2 3 5 6 5 2 3 6 2 1 1 4 1 5 10 9 11 19 14 16 18 16
6 5 6 7 7 7 7 7 10 12 7 2 1 0 3 1 1 3 3 3 3 1 3 3 4 2 5 10 7 9 7 6 7 3 2 2 2 4 6 4 7 12 10 4 3 5 4
5 5 7 8 8 8 9 8 10 17 15 1 2 2 2 4 3 4 3 4 4 4 5 3 2 3 3 2 5 5 6 9 7 10 10 4 4 2 5 5 3 4 3 3 5 4 3
6 7 7 8 9 10 9 10 11 17 23 1 2 3 3 3 3 3 7 5 3 3 3 5 6 2 3 4 3 6 4 4 2 1 5 8 5 2 3 3 9 7 2 4 4 5 6
7 7 8 8 9 11 11 10 10 15 20 4 2 2 3 2 7 6 4 5 4 3 3 5 0 1 2 2 1 3 3 1 4 2 4 3 3 4 3 4 6 3 4 3 2 5 7
9 9 9 9 10 10 11 11 11 13 16 6 2 7 2 3 4 6 5 5 5 2 3 2 3 3 1 3 3 5 4 3 4 4 4 3 2 13 12 6 8 4 5 4 3 4 3
11 12 11 11 10 11 11 12 12 11 14 10 2 13 4 3 4 7 7 5 3 3 4 3 2 1 2 3 4 4 4 5 3 4 6 8 7 5 4 5 10 6 4 7 3 2 5
13 16 12 12 13 12 10 12 12 12 11 17 3 3 6 2 2 2 4 2 4 7 4 6 2 3 2 3 3 2 4 3 5 6 3 4 7 5 10 6 2 2 3 2 3 3 3
Wind_Direction
52 46 39 34 29 24 21 16 11 7 4 0 355 353 350 350 349 342 342 344 349 350 349 335 334 358 206 54 99 306 336 343 358 29 44 47 46 81 87 339 357 73 356 37 92 86 93
48 43 37 31 25 21 17 13 9 4 2 0 356 353 349 348 348 343 338 342 349 4 8 28 36 299 75 74 298 321 328 7 29 37 30 46 113 125 104 102 82 353 1 133 134 152 116
43 37 30 26 21 16 13 10 7 2 1 2 359 354 348 347 345 344 340 341 349 19 42 66 59 315 64 154 333 350 2 41 15 42 57 22 146 101 145 122 301 54 76 27 78 184 144
41 32 27 21 17 14 11 7 4 3 0 360 357 353 349 346 341 341 340 341 3 33 58 67 2 350 90 256 331 35 357 23 19 40 85 151 11 108 58 331 25 62 56 36 299 77 9
40 30 25 20 15 12 11 6 1 1 358 355 354 352 350 348 341 342 345 29 73 17 29 359 30 68 45 356 25 339 25 15 330 32 9 75 47 60 24 53 18 14 174 206 298 36 133
34 27 22 18 13 8 6 4 0 358 355 354 352 350 349 349 347 346 354 43 8 22 321 311 49 42 12 320 310 330 303 36 45 352 29 38 44 56 24 52 245 287 318 270 234 169 54
14 11 10 8 6 2 358 357 357 354 352 351 351 348 349 352 355 1 7 26 20 357 39 77 295 184 307 296 279 336 5 24 21 51 43 13 64 10 290 228 259 266 249 252 260 135 102
323 336 344 347 349 350 349 350 351 350 350 349 349 348 346 350 353 23 30 67 78 210 21 41 277 291 266 339 345 332 14 48 45 49 23 23 96 217 225 98 279 250 223 267 301 144 104
297 311 322 328 331 332 335 340 343 345 346 346 348 349 346 345 36 41 67 52 330 144 81 324 306 314 298 33 336 306 33 2 57 45 28 146 249 78 166 271 353 235 193 251 234 95 53
287 298 308 319 323 323 325 329 334 338 340 342 345 349 351 343 71 328 47 326 345 164 76 322 348 10 13 93 18 338 49 57 12 8 33 227 57 64 3 317 110 316 221 216 274 47 234
288 287 294 309 316 319 323 323 329 334 332 335 339 346 353 24 273 54 312 335 79 46 54 304 312 294 323 66 303 11 358 18 18 317 76 297 17 360 337 275 172 239 183 239 232 206 347
290 289 288 296 306 315 321 322 329 330 327 330 334 340 344 33 45 138 325 2 52 47 279 340 319 355 10 4 339 322 17 40 115 61 351 247 263 193 271 302 213 323 13 39 50 88 338
275 288 291 296 305 323 327 326 331 330 323 330 330 336 336 136 307 324 69 70 34 93 347 328 332 3 326 314 333 40 27 15 39 23 5 338 339 303 1 343 29 18 40 345 347 4 235
276 287 294 295 300 321 326 327 333 332 330 331 328 333 323 284 328 353 88 49 71 49 328 1 349 330 31 360 336 340 47 24 28 67 67 48 332 4 351 214 270 354 113 137 283 288 295
275 282 291 297 315 324 320 323 328 328 331 336 331 345 21 321 345 62 64 48 163 213 267 343 336 47 332 358 19 11 35 200 211 59 43 17 278 303 211 171 137 263 144 216 211 197 262
271 284 287 296 317 319 312 314 320 327 330 352 357 355 298 335 346 58 69 149 198 304 334 357 59 38 335 318 14 20 322 265 242 150 132 212 298 248 294 43 265 207 148 351 356 299 275
259 266 273 287 292 303 310 316 325 332 340 340 31 19 275 341 68 46 96 217 265 325 351 357 201 303 356 315 323 301 291 324 6 227 152 147 135 287 324 180 207 5 308 158 242 195 266
245 248 252 267 281 293 303 319 331 332 331 44 61 8 304 355 50 43 96 281 343 310 14 343 121 217 197 319 287 276 258 231 336 162 330 310 159 277 243 268 237 241 228 149 154 284 249
235 240 237 254 281 280 288 301 327 327 15 59 59 274 316 50 93 5 319 323 233 326 275 168 298 228 135 233 305 228 287 274 351 333 254 180 293 320 334 5 318 225 207 169 134 4 246
237 251 257 256 261 278 277 272 273 284 7 66 47 10 335 43 52 103 30 341 314 255 287 230 253 32 21 287 238 288 297 310 335 240 168 107 205 196 226 236 211 261 238 208 198 207 272
232 242 260 265 259 266 273 246 240 210 178 71 29 358 177 329 353 43 8 302 274 302 235 322 318 225 180 276 292 251 250 322 270 246 162 163 237 206 260 274 266 270 268 259 229 246 244
239 251 253 256 258 257 263 233 214 183 159 78 129 117 17 303 322 56 248 253 233 289 238 245 204 177 186 224 210 259 319 203 243 11 145 8 274 315 269 255 272 278 274 262 255 257 251
246 252 259 259 259 258 248 235 212 189 171 132 198 130 108 233 120 103 239 243 244 199 285 269 241 282 249 242 244 248 226 223 229 203 184 233 225 348 279 344 302 278 267 213 244 225 212
253 264 271 271 270 262 253 242 222 200 193 137 184 120 129 259 171 198 203 204 240 226 259 284 247 194 255 357 314 284 242 244 235 240 215 206 155 188 281 345 258 248 169 211 243 241 212
255 264 268 278 281 273 265 253 235 219 207 201 164 142 166 248 201 231 241 228 282 252 241 244 244 212 117 43 315 313 309 332 170 85 210 216 176 231 251 226 287 278 183 164 186 289 177
245 256 262 265 277 280 275 266 251 239 221 174 214 158 146 179 215 184 204 203 238 230 297 242 163 20 102 135 173 258 273 258 291 273 26 108 203 194 169 240 253 225 174 149 149 268 163
248 249 255 262 270 277 276 275 267 247 236 177 234 185 133 204 218 153 190 194 173 178 231 269 164 138 87 168 216 220 241 195 248 219 176 138 173 217 228 250 277 174 151 142 130 265 115
254 252 252 258 257 260 265 274 276 263 245 193 244 195 185 224 228 205 191 164 140 186 196 149 99 157 116 206 213 228 212 228 253 211 194 180 171 199 203 227 272 136 100 183 168 83 122
242 250 248 253 256 252 261 265 274 281 264 213 237 182 179 226 276 300 291 290 295 249 185 188 234 151 172 186 211 212 218 216 214 262 163 241 202 190 195 221 60 8 26 7 104 120 120